Theta_e
332 323 330 336 339 341 340 342 343 342 336 329 327 330 327 322 322 324 328 335 339 341 342 342 342 341 341 341 341 341 341 341 341 341 342 342 342 341 341 340 335 332 333 332 330 328 326 328 328 330 331 328 329 332 333 334 334 335 336 336 336 336 336 336 337 337 337 337 336 337 337 338 336 334 331 330 330 329 330 332 333 333 332 332 333
330 325 330 336 340 340 340 342 343 341 334 327 327 330 325 321 322 326 335 340 341 340 340 341 341 341 340 341 340 341 341 341 341 341 341 341 341 341 341 340 336 334 334 332 329 327 327 330 331 331 330 329 327 329 332 333 333 334 334 334 334 334 335 336 336 336 336 336 336 335 335 336 335 334 332 331 330 328 329 331 332 332 332 332 332
326 331 334 338 340 340 340 342 343 340 331 327 329 329 323 321 326 334 341 342 341 340 339 340 341 340 340 341 340 341 341 342 341 341 341 341 341 341 342 340 337 336 335 332 328 327 330 332 332 332 329 327 327 328 330 332 333 334 334 334 334 334 334 333 332 332 331 332 334 334 334 334 334 334 333 331 330 330 329 330 330 330 331 331 331
324 333 337 340 340 340 341 342 343 338 330 327 329 328 321 324 334 340 342 341 340 339 339 339 340 340 340 341 341 341 341 342 341 341 341 341 341 341 341 340 339 337 337 334 330 330 332 333 332 332 328 326 325 325 329 333 334 335 335 333 334 335 335 333 333 333 331 328 329 332 333 333 333 333 333 332 331 331 330 329 329 329 330 331 330
323 332 337 340 340 341 341 342 343 338 330 328 330 326 323 332 340 342 341 339 339 339 339 339 340 340 340 341 341 341 341 341 341 342 341 341 341 341 340 340 339 337 337 334 331 333 333 333 333 332 330 326 321 320 326 332 335 335 335 334 334 336 335 334 335 336 335 331 327 328 330 331 332 332 333 333 333 333 331 330 331 330 331 331 330
324 332 338 339 340 340 340 342 342 338 330 329 329 325 328 338 342 341 341 340 339 339 339 339 340 340 341 341 341 341 341 341 342 341 341 341 341 341 340 339 338 336 335 332 332 334 333 333 333 332 332 327 322 323 326 330 333 334 335 335 336 336 336 336 336 336 336 334 330 329 330 331 332 333 333 333 333 333 332 331 331 331 330 331 330
325 333 338 338 340 340 341 341 340 338 332 331 329 327 335 341 342 341 341 341 341 341 340 339 340 340 341 341 341 342 341 341 342 342 341 341 341 340 340 339 338 337 334 332 334 334 333 334 333 332 332 327 323 326 328 330 331 332 333 334 335 336 336 336 336 336 336 336 333 331 330 330 331 332 333 332 331 332 332 332 331 329 329 331 330
330 336 338 338 340 339 341 341 339 338 335 333 329 332 340 342 342 341 341 342 342 341 341 340 340 339 340 342 342 342 341 341 342 342 341 341 341 340 340 339 337 334 332 330 330 331 332 333 332 332 331 327 325 326 328 330 331 332 332 332 333 333 334 333 334 334 335 335 334 331 328 328 330 332 333 330 329 331 331 331 331 330 328 329 330
337 338 336 338 339 339 341 340 339 338 337 334 331 336 341 343 342 341 342 342 342 341 341 341 340 340 341 342 342 342 342 341 342 342 341 341 340 340 339 335 331 329 328 327 327 328 329 328 327 329 329 326 326 327 328 330 331 331 331 331 332 332 332 333 334 335 335 333 333 331 327 326 326 329 332 329 327 329 330 328 328 330 329 328 329
339 337 336 339 338 339 340 339 338 338 339 335 333 339 342 342 341 342 342 342 342 342 342 342 341 341 342 341 341 341 341 341 341 341 340 340 339 338 337 334 330 328 328 327 327 328 328 325 323 325 326 326 327 328 329 330 331 331 332 332 332 332 333 334 335 335 335 333 332 331 328 324 323 325 327 327 326 327 328 327 328 329 330 329 329
337 337 337 338 338 339 339 338 338 338 339 337 336 339 342 342 341 342 342 342 342 342 342 342 342 342 341 341 341 341 341 341 341 340 340 340 339 338 336 334 331 328 327 325 327 329 327 325 321 323 325 326 329 329 330 331 331 332 332 332 332 333 334 334 334 333 333 332 331 331 328 323 323 324 324 325 324 323 326 328 329 329 329 329 328
337 337 336 338 338 338 339 338 338 339 339 337 338 340 341 341 341 342 341 342 342 342 342 342 342 341 341 341 341 341 340 340 338 338 338 337 336 335 333 331 328 327 325 323 328 329 328 325 321 323 326 327 329 330 331 331 332 332 332 332 333 333 333 333 333 333 332 332 332 331 328 323 326 327 325 324 322 322 323 326 328 328 328 327 326
336 335 336 338 337 338 339 338 338 338 337 337 339 340 341 341 341 341 341 342 342 342 341 341 341 340 340 340 340 338 335 333 332 331 331 332 331 329 328 326 325 325 324 324 329 329 328 327 321 322 326 328 330 331 331 331 331 332 332 332 333 333 333 333 332 332 332 332 332 332 328 325 328 328 326 324 322 322 321 322 324 326 326 324 325
333 335 336 335 335 337 337 338 337 337 336 336 339 340 340 341 341 341 341 342 341 341 340 340 339 338 337 336 334 330 327 325 324 324 323 323 323 321 321 321 322 323 323 324 329 329 329 329 323 321 325 328 330 331 331 331 332 332 332 332 333 333 333 332 331 332 332 332 332 332 329 328 330 329 325 323 322 322 322 321 321 322 322 323 326
328 333 334 334 335 337 336 336 335 335 336 337 339 340 341 341 341 341 341 341 340 339 339 339 337 336 334 331 329 326 326 324 322 321 319 320 320 319 317 317 320 322 321 324 329 330 329 330 327 322 322 327 329 330 331 331 332 332 332 332 333 334 335 333 331 332 332 332 332 333 330 329 330 328 325 323 322 321 322 321 321 322 320 323 325
326 327 331 334 336 336 337 336 334 334 335 338 340 340 341 341 341 341 341 341 339 339 338 337 335 333 331 329 329 329 329 328 326 323 321 321 321 320 316 314 317 321 320 323 329 330 330 330 329 324 321 324 327 329 330 331 332 332 332 333 334 334 335 335 333 331 331 332 333 333 331 331 330 327 325 323 322 321 321 321 322 323 322 323 323
327 326 329 334 336 336 337 337 336 335 336 338 340 340 341 341 341 341 341 340 339 339 337 335 334 332 332 332 332 332 331 330 329 327 324 322 323 321 316 312 314 319 319 322 327 329 330 330 330 327 323 321 323 326 328 331 331 332 332 332 334 334 334 335 334 332 331 332 333 334 332 332 330 326 325 324 322 321 321 322 322 323 323 324 323
332 332 333 336 338 338 337 337 336 337 337 339 340 340 341 341 341 341 340 339 338 337 335 335 334 334 334 333 333 332 331 331 330 329 325 323 324 322 317 313 312 316 319 320 324 328 329 330 330 329 327 323 321 323 326 330 331 331 332 333 333 330 332 334 334 333 331 331 332 333 333 333 330 325 326 325 323 322 322 322 322 322 322 323 323
336 336 337 339 340 340 339 339 338 338 339 340 341 341 341 341 341 340 339 338 337 336 335 335 334 333 333 333 333 332 332 331 330 328 325 324 325 324 324 321 315 313 316 317 321 326 328 329 330 329 328 326 324 322 324 328 329 330 331 333 332 327 329 333 334 334 332 331 331 332 333 333 330 326 327 326 324 324 324 323 323 323 322 323 324
337 337 338 340 341 341 341 341 340 340 340 341 341 341 341 340 340 339 339 338 337 336 335 334 333 333 334 335 334 334 334 333 330 327 326 325 325 325 327 329 326 320 317 315 316 321 326 327 328 328 328 327 327 324 323 325 326 330 331 331 330 324 326 331 333 334 334 333 332 331 332 334 331 327 328 327 325 326 326 325 324 324 324 324 325
337 338 339 340 340 340 341 341 340 340 340 341 341 341 340 340 340 339 338 337 337 336 334 332 333 335 336 337 336 336 335 335 333 328 326 325 325 325 326 328 330 329 328 323 318 316 319 324 327 327 326 326 327 326 323 323 324 327 327 329 329 325 326 332 334 335 336 336 334 333 332 333 331 328 329 328 326 327 328 327 327 326 326 326 326
338 339 340 339 340 340 341 340 340 341 341 341 341 340 340 340 339 339 338 337 336 335 334 334 335 336 337 337 338 338 337 338 338 333 329 327 327 328 328 329 329 332 333 333 328 322 317 317 321 325 325 325 327 328 325 323 326 327 329 333 334 331 331 334 336 336 336 336 336 335 333 333 331 329 330 329 328 328 329 329 328 328 328 328 328
339 340 341 340 339 339 340 340 340 341 341 341 341 340 340 339 339 338 337 337 336 335 335 335 336 337 337 338 338 339 338 339 340 338 336 334 334 333 332 332 332 333 333 334 334 333 328 321 317 318 320 322 326 331 330 329 332 333 334 335 335 335 335 335 335 335 335 334 334 335 334 333 331 330 330 330 329 329 330 330 329 329 329 329 329
339 340 340 339 337 337 339 339 340 341 341 340 340 341 340 339 338 338 337 336 335 334 335 336 337 338 338 338 338 338 338 337 339 340 339 337 337 337 336 335 335 334 334 334 334 335 335 333 326 321 319 320 322 327 330 331 332 332 332 332 333 334 335 334 333 334 334 333 333 333 333 333 332 331 331 330 330 330 330 330 330 329 330 330 330
338 339 338 337 335 336 338 339 339 340 340 340 340 340 339 338 338 337 337 335 335 334 335 336 338 337 336 337 337 337 337 336 337 338 338 337 338 338 337 337 337 335 335 334 334 334 334 335 334 332 329 327 327 329 331 332 332 332 332 332 332 333 334 334 333 333 333 333 333 333 333 333 333 332 331 330 331 331 331 331 330 330 330 331 331
337 338 337 335 334 335 338 338 339 340 340 339 339 339 338 338 338 337 336 334 334 335 336 338 338 336 337 338 337 337 337 336 336 337 337 338 338 338 337 337 337 337 336 335 335 334 335 335 335 335 334 334 334 335 336 336 335 335 334 333 332 333 333 333 333 334 334 333 333 333 334 334 333 332 332 332 332 331 331 331 331 331 332 332 332
337 337 337 336 333 335 338 339 340 340 339 339 339 338 337 337 337 336 334 334 335 337 338 338 338 338 337 338 338 338 338 338 338 338 338 338 338 338 338 337 338 337 336 336 336 336 336 336 337 336 336 337 337 337 338 337 337 336 335 334 334 334 334 334 334 334 334 334 333 333 333 334 333 333 333 333 333 332 332 332 333 334 335 335 334
338 338 337 335 334 336 338 338 339 339 339 339 339 337 335 336 336 334 335 336 337 338 338 338 338 338 338 339 339 339 339 338 338 338 338 337 337 338 338 337 337 337 336 336 337 338 338 337 338 337 337 337 337 337 337 337 337 337 336 336 336 336 336 336 336 335 336 336 335 334 334 335 334 334 334 334 334 334 333 333 336 337 336 335 334
339 337 335 334 335 337 338 337 337 337 338 339 338 336 334 335 335 334 336 339 338 338 338 339 339 339 339 340 339 339 338 338 338 338 338 337 337 338 337 337 337 337 337 337 337 338 338 338 337 337 337 337 337 337 337 337 337 337 337 337 337 337 336 337 336 337 337 337 337 336 336 336 336 336 336 336 336 336 335 334 335 335 334 334 334
339 336 335 334 335 338 339 338 337 337 337 339 338 334 334 335 334 335 336 338 338 338 338 339 339 339 339 339 339 339 338 338 339 339 338 338 337 337 337 337 337 337 337 337 337 338 337 337 337 337 337 337 337 337 337 337 337 337 336 336 336 336 336 336 336 336 336 336 336 336 336 335 336 337 337 337 337 337 336 335 334 334 334 335 334
339 338 337 336 337 338 340 339 338 337 336 338 337 334 335 336 335 336 336 337 338 338 338 339 339 339 339 339 339 339 339 339 339 339 338 338 337 337 338 337 337 337 337 337 337 337 337 337 337 337 336 336 336 336 337 337 336 336 336 335 335 335 335 335 335 335 335 335 335 335 335 335 335 337 337 337 337 336 336 335 335 335 334 334 335
339 339 338 338 338 338 339 339 338 337 335 335 335 334 336 337 337 336 337 337 338 338 338 339 339 338 339 338 339 339 339 339 339 339 338 337 336 336 337 337 337 337 337 337 337 337 337 337 336 336 335 335 335 335 335 335 335 335 334 334 333 333 333 333 333 333 333 334 334 335 335 335 336 337 337 336 336 336 335 335 335 335 334 333 334
340 339 339 339 338 337 337 336 336 337 334 333 335 336 337 337 337 337 337 337 338 338 339 339 339 338 338 339 339 340 339 339 339 338 337 336 336 336 337 336 336 336 336 336 336 336 336 336 335 334 334 334 333 333 333 334 334 333 333 332 332 332 332 332 332 332 333 333 334 334 335 336 336 336 336 335 334 334 333 334 334 333 334 334 333
339 339 340 339 338 336 336 335 335 336 334 334 336 336 337 337 337 337 337 337 337 339 339 339 338 338 338 339 339 340 340 339 338 338 337 336 336 337 337 336 336 335 336 336 335 335 334 334 334 333 333 333 333 333 333 332 332 332 332 331 331 331 331 331 331 332 332 333 333 334 333 333 333 333 332 331 331 330 330 329 329 329 331 332 332
339 340 340 340 338 337 336 335 336 335 334 336 336 336 337 336 337 338 338 338 338 339 338 338 337 338 338 339 339 340 339 339 338 337 337 336 337 337 336 336 336 335 335 335 335 334 334 333 333 333 333 332 332 332 331 332 331 331 330 330 329 329 330 330 330 330 330 330 331 330 329 328 327 327 326 325 325 325 325 325 325 325 327 329 330
340 340 340 340 339 339 338 337 336 336 335 336 336 336 336 337 338 338 338 339 338 338 338 338 338 338 338 339 339 339 339 338 337 337 337 336 336 336 336 336 336 336 335 334 334 333 333 332 332 332 332 331 331 331 331 330 330 329 328 327 327 328 328 328 327 326 325 326 326 325 324 322 321 321 320 320 321 322 322 322 322 322 324 325 327
339 339 338 339 339 338 337 337 337 336 336 336 336 336 336 337 337 338 338 338 338 338 338 338 337 337 337 338 339 338 338 338 338 337 336 336 335 335 335 335 335 335 334 333 333 332 331 331 331 330 330 329 329 329 329 328 328 327 326 326 326 326 326 325 324 323 322 322 321 321 320 318 317 317 317 318 320 322 322 320 319 317 317 318 318
338 338 337 338 337 337 336 336 337 337 336 336 336 336 336 336 336 337 337 337 338 338 338 337 336 336 337 337 338 337 337 337 337 337 336 335 335 334 334 333 333 333 332 332 331 330 330 329 329 328 327 327 326 326 326 326 325 324 325 326 324 323 323 323 322 321 319 317 315 315 315 314 313 313 314 316 319 320 321 321 319 317 314 312 310
337 337 337 336 336 336 336 336 337 337 337 336 336 337 336 337 337 337 337 337 337 337 337 336 336 337 337 337 336 336 336 335 335 335 335 334 334 333 332 331 331 330 330 330 328 327 327 326 326 325 324 323 323 322 323 322 322 321 323 326 324 321 321 321 320 319 316 313 311 310 310 309 309 310 311 313 314 314 316 318 319 317 315 311 308
336 336 336 336 336 335 336 336 336 336 337 337 337 337 337 337 337 336 336 336 336 336 336 335 335 336 336 336 336 335 334 334 333 333 333 333 332 331 330 329 328 327 328 327 325 324 324 324 324 323 322 321 320 319 318 318 319 318 321 325 325 321 318 318 317 316 314 310 307 306 305 304 305 307 309 311 311 309 309 313 317 316 312 310 307
336 335 335 336 336 336 336 336 336 337 337 337 337 337 337 336 336 336 335 335 334 335 334 334 334 334 334 334 334 334 333 333 332 332 332 331 331 330 328 327 325 325 325 324 322 322 322 322 321 320 319 318 317 315 314 315 316 317 319 322 323 321 318 316 315 313 311 307 303 302 302 301 302 305 307 308 308 307 305 307 313 313 307 305 304
335 336 336 336 336 336 336 336 336 337 337 337 337 337 336 336 336 335 334 333 333 333 333 332 332 332 331 332 332 332 332 332 331 331 332 331 330 330 327 325 324 323 322 321 320 319 319 319 319 318 316 314 314 313 312 313 314 317 319 321 323 323 319 314 312 312 310 306 301 299 300 299 300 303 305 306 306 305 303 303 307 308 304 301 300
336 336 336 336 336 336 336 337 337 337 336 336 336 336 335 335 335 334 332 332 331 332 332 331 330 330 329 329 329 329 329 329 329 329 329 329 327 326 324 323 322 321 320 318 317 315 314 315 315 315 313 312 312 312 312 311 312 315 318 322 324 326 326 317 309 310 310 305 299 297 299 299 299 300 302 305 304 302 302 301 302 304 302 299 297
335 335 335 336 336 336 337 337 337 337 336 336 335 335 335 334 334 332 332 332 330 331 331 328 328 328 327 327 326 326 326 326 325 326 326 325 323 322 321 321 319 318 317 315 313 312 310 309 309 310 310 311 311 312 311 310 309 313 319 323 320 323 330 319 309 310 309 305 299 296 298 299 298 299 300 302 303 301 301 301 300 301 301 298 297
335 334 335 335 336 336 337 337 337 336 335 335 335 335 334 333 332 330 330 329 328 329 328 326 325 325 325 324 324 323 323 323 323 323 322 321 321 320 319 318 317 315 314 312 311 309 306 306 306 307 309 310 311 311 311 310 309 309 313 318 319 321 322 313 310 312 308 305 301 296 297 298 298 298 299 301 302 301 301 300 300 300 300 298 297
335 335 335 335 336 336 336 336 336 335 335 334 334 335 334 333 331 330 328 327 325 325 325 324 323 323 322 322 321 321 321 321 320 320 320 319 319 318 317 316 314 313 312 311 309 306 305 306 306 307 308 309 310 311 311 310 309 308 307 309 312 314 311 308 311 313 308 305 302 297 296 297 297 298 298 299 301 301 300 299 299 300 299 297 297
335 335 336 335 335 335 335 335 335 334 334 334 334 334 333 332 331 330 330 329 326 324 323 323 322 321 320 319 319 318 318 318 318 318 318 317 317 316 315 313 312 311 310 309 307 306 306 307 307 307 308 308 308 309 309 308 308 307 306 306 305 306 306 306 308 311 310 307 302 298 296 296 297 297 297 298 300 300 299 298 298 299 298 297 297
336 336 335 335 335 334 334 334 334 334 334 334 334 334 333 332 331 331 330 329 327 324 322 321 320 319 318 317 317 316 316 316 316 316 316 316 315 314 312 311 310 310 310 308 308 307 307 308 308 307 308 308 308 308 307 307 306 306 305 305 305 304 304 303 303 306 308 306 303 299 297 296 296 297 297 297 299 300 299 297 298 298 298 297 296
336 336 335 335 335 334 334 333 333 334 334 334 334 333 333 332 331 331 329 327 326 323 321 319 318 317 317 315 315 314 314 314 315 315 315 315 314 312 311 309 309 309 309 308 308 307 307 308 307 307 307 307 307 307 306 305 305 305 304 304 304 303 302 301 300 301 302 304 304 300 297 297 297 296 296 296 298 299 299 297 297 298 297 296 296
337 336 336 335 334 334 334 333 333 333 333 333 334 333 332 331 331 330 328 325 323 321 319 318 316 316 315 313 313 312 312 312 313 313 313 313 312 311 310 309 308 308 308 308 307 307 307 307 307 307 306 306 306 305 305 304 304 303 303 302 302 301 301 299 299 299 299 300 301 299 297 297 298 298 296 296 297 298 298 296 296 297 297 296 296
337 336 335 335 334 334 333 332 332 332 333 333 334 333 332 332 331 330 328 324 322 320 318 316 315 314 313 312 311 311 311 311 311 311 311 311 310 309 308 308 307 307 307 307 307 307 307 307 306 305 305 305 305 304 304 303 303 301 300 299 298 298 299 298 298 298 298 298 298 298 296 296 297 297 296 296 296 297 297 296 296 297 296 296 296
Wind_Speed
23 24 23 22 20 20 19 20 19 20 21 20 19 17 17 17 18 18 18 17 17 18 18 19 18 19 18 17 17 17 16 16 15 14 13 12 12 12 12 12 11 11 11 10 9 10 10 10 10 10 10 9 10 11 12 12 12 12 12 11 10 10 12 12 11 11 10 10 10 11 10 10 8 7 8 9 9 9 11 13 13 13 12 10 10
30 26 24 23 21 21 19 20 20 20 21 20 19 17 17 18 19 18 17 17 17 18 19 19 18 18 18 17 16 16 15 15 14 14 13 12 12 11 12 11 10 10 9 9 9 10 10 10 10 10 9 9 10 11 12 12 13 12 12 12 11 12 13 12 11 11 10 10 10 9 10 9 7 6 7 8 8 9 11 11 11 11 10 9 9
31 27 25 23 21 20 20 20 20 21 22 20 19 17 18 19 19 18 17 17 17 18 19 18 18 17 17 16 16 15 15 14 14 13 12 12 11 11 11 10 9 9 8 8 8 10 10 11 10 9 8 9 10 11 12 13 13 12 12 12 13 13 13 12 12 11 10 9 8 8 9 8 7 6 7 7 7 8 9 9 9 9 9 8 8
29 29 25 23 21 20 20 20 20 21 21 20 18 17 19 19 19 18 17 17 17 18 18 18 17 17 17 16 15 14 14 14 13 13 12 11 10 10 10 9 8 8 8 8 9 10 10 10 10 9 8 9 11 12 13 13 13 13 12 13 13 12 11 12 12 12 11 9 7 7 8 8 7 6 6 6 7 8 8 9 8 9 9 9 8
29 29 25 23 21 20 20 20 20 20 21 20 18 17 19 19 18 17 17 17 17 17 17 17 17 17 16 15 14 14 14 13 13 12 12 11 10 9 9 9 8 8 8 8 9 10 10 10 10 10 9 10 13 14 14 13 12 12 12 13 12 11 10 10 9 10 11 9 8 8 8 8 8 7 7 7 8 7 7 9 8 8 9 8 7
30 28 26 24 22 21 19 20 19 19 21 20 18 17 18 18 18 17 16 16 17 16 16 16 16 16 15 14 14 14 13 13 12 12 11 10 10 9 8 8 8 9 8 8 9 9 8 9 10 10 10 11 14 15 15 13 12 12 11 10 10 10 9 7 4 6 8 7 7 9 9 9 9 8 7 7 7 6 6 8 8 7 8 7 6
30 29 26 25 23 21 19 20 19 18 20 20 18 17 17 17 17 16 16 15 15 15 15 15 15 15 14 14 13 13 12 12 12 11 11 10 9 8 8 7 7 7 6 6 7 6 7 8 9 9 10 12 14 15 14 13 12 12 11 9 9 8 8 6 2 2 2 2 4 6 8 7 7 7 5 5 6 5 5 7 5 4 6 7 6
30 29 27 25 23 21 20 20 18 19 19 19 18 17 17 16 17 16 16 15 15 14 14 14 14 14 14 13 13 12 12 11 11 10 10 10 9 8 7 5 5 6 5 5 5 5 6 7 7 9 10 11 13 13 13 13 12 11 10 8 7 6 4 2 1 1 2 2 1 4 6 6 6 6 5 3 5 5 4 4 4 4 5 6 6
29 28 27 26 23 22 21 19 19 18 18 18 17 16 16 16 16 16 15 15 14 14 13 13 13 14 13 13 12 12 11 10 9 9 9 8 7 7 6 5 5 5 5 4 5 6 7 7 8 9 10 11 12 12 12 11 10 9 8 7 5 4 3 2 1 2 3 3 3 4 5 5 5 5 4 2 3 4 3 3 4 5 4 5 6
28 27 27 26 23 21 21 20 19 18 17 17 17 16 16 15 16 15 15 15 14 13 12 12 12 13 12 12 12 11 11 10 8 7 7 6 6 5 4 4 4 4 4 4 5 6 8 8 9 10 11 11 11 11 10 9 9 8 7 6 5 5 4 1 2 2 3 4 4 5 5 4 4 3 2 2 2 3 3 3 4 4 3 4 4
26 27 27 25 22 20 21 20 18 18 17 16 17 16 16 15 16 15 15 14 13 12 12 12 12 12 11 11 11 11 10 9 7 6 5 5 4 3 3 3 3 4 4 4 5 7 8 9 9 11 11 10 10 10 9 8 7 6 6 5 6 6 4 1 1 3 3 4 5 5 4 4 4 5 3 2 2 3 2 3 3 3 2 2 2
25 27 27 25 22 20 21 20 19 18 16 16 16 16 16 16 16 15 15 14 13 12 11 11 11 11 11 11 10 10 9 7 6 5 4 4 3 2 2 2 2 3 4 4 5 7 8 8 9 11 10 10 10 9 8 7 6 5 5 5 6 7 5 1 0 3 4 4 4 4 4 3 5 6 4 3 3 3 1 2 2 3 2 1 2
26 26 26 24 22 22 22 21 20 18 17 17 17 16 16 16 15 15 15 14 12 11 11 11 11 10 10 9 9 8 7 5 4 3 3 2 1 1 1 1 2 4 4 5 5 6 7 8 9 11 10 10 10 9 7 6 5 4 5 5 7 8 7 3 1 1 3 3 3 3 2 2 4 6 5 4 4 4 1 1 2 2 2 0 1
28 26 25 24 23 22 22 22 21 19 18 18 17 17 16 16 15 15 15 14 12 11 10 10 10 9 9 8 7 7 6 5 4 4 4 3 3 2 1 1 2 4 4 5 5 6 6 7 8 9 10 10 9 8 7 6 5 4 4 5 6 8 8 5 3 1 2 2 1 1 1 2 4 5 5 5 5 4 3 2 1 1 1 0 0
29 27 26 24 23 22 22 23 21 20 20 19 18 17 17 17 15 15 14 13 11 10 9 9 10 9 8 8 7 7 6 6 5 5 5 5 4 4 3 1 3 4 5 5 5 5 5 6 7 7 9 9 9 8 7 6 5 4 4 5 6 8 9 7 6 2 2 2 2 2 2 2 4 4 5 5 6 5 4 4 3 2 1 1 1
29 28 28 26 25 23 22 22 21 21 20 19 19 17 17 16 16 14 13 12 10 9 9 9 9 9 8 7 7 7 6 6 6 6 6 5 6 5 4 2 3 4 5 5 5 4 5 5 6 6 6 8 8 7 6 5 4 3 3 4 6 8 8 9 9 5 2 4 4 4 4 4 4 4 4 5 6 6 5 5 5 4 3 2 2
28 29 28 27 25 24 23 21 21 21 20 19 18 17 16 16 15 14 12 11 10 9 9 9 9 8 7 6 6 6 6 6 6 6 6 6 7 7 6 4 3 4 5 5 5 4 4 5 5 5 5 5 6 6 6 5 4 2 2 3 5 7 8 9 10 8 4 3 5 5 5 5 5 4 4 6 7 6 6 6 6 6 5 4 2
27 28 28 27 26 24 23 22 21 20 19 19 17 17 16 15 14 13 12 11 10 10 9 8 8 7 6 6 6 7 8 7 7 6 6 7 7 8 9 7 4 4 4 5 5 4 3 3 4 5 5 3 4 5 6 5 4 2 1 2 4 6 7 8 9 10 7 3 4 6 7 7 6 5 5 6 7 7 7 7 7 7 7 6 4
26 26 26 25 25 24 23 21 21 20 19 18 17 16 15 15 14 13 12 12 11 10 8 8 7 7 6 6 6 7 8 9 9 7 7 7 8 8 9 9 7 4 3 4 4 4 3 2 3 4 4 4 2 2 5 6 5 3 1 1 3 6 7 7 8 9 9 6 5 6 8 9 8 7 6 7 7 8 8 8 7 8 8 7 7
24 25 24 24 24 24 23 21 20 19 18 18 16 15 15 14 13 13 13 12 11 10 8 8 8 8 7 7 7 7 8 9 9 8 7 7 7 7 8 9 9 8 5 2 2 4 3 2 2 2 3 4 3 1 2 4 5 4 2 2 4 6 6 6 6 7 9 8 6 7 9 10 10 9 7 7 8 8 8 9 9 8 8 8 8
24 25 25 25 25 24 23 22 20 19 18 17 16 15 14 14 14 14 13 12 11 10 9 9 9 9 7 7 6 6 6 7 9 9 8 7 6 6 6 7 7 8 7 5 2 1 3 4 2 1 2 2 2 1 1 2 3 3 2 3 5 6 7 5 5 7 9 10 9 9 9 11 12 11 9 9 9 9 10 10 10 10 9 8 9
24 23 23 24 25 24 23 22 20 19 18 17 16 15 15 15 15 14 14 12 11 10 10 10 9 7 6 5 5 5 5 6 7 8 8 7 6 5 5 6 6 6 7 7 6 3 1 3 4 3 2 0 1 1 1 2 2 1 2 3 4 5 6 6 7 8 10 12 12 11 10 11 13 13 11 10 11 11 11 11 11 11 10 10 9
22 22 22 23 24 23 22 22 21 20 19 18 17 16 15 15 15 15 14 12 11 10 9 9 7 6 4 3 2 3 4 4 4 4 5 5 5 4 4 4 4 4 5 6 6 6 3 2 3 4 4 3 1 1 1 1 1 3 5 6 6 5 6 7 8 10 10 11 12 11 11 11 13 14 13 12 12 12 13 13 13 12 12 11 9
21 22 23 22 23 23 23 23 21 20 20 19 18 17 16 15 15 14 13 12 11 11 9 8 7 5 3 1 1 2 2 3 2 1 2 3 4 3 3 4 3 3 4 4 5 6 5 3 2 2 3 3 3 3 3 4 5 8 9 10 10 9 8 8 8 10 11 12 12 12 11 11 12 13 14 14 14 14 15 15 15 14 13 12 11
21 22 23 23 23 24 25 24 22 21 20 19 19 18 17 16 14 13 12 12 12 11 9 7 6 5 3 2 1 1 1 1 2 0 2 4 4 4 3 3 3 3 3 4 4 5 5 4 4 3 2 3 3 3 4 5 6 8 9 9 9 9 10 9 9 10 10 12 13 13 11 10 11 12 14 15 15 15 16 17 16 16 15 15 13
21 21 23 24 25 25 27 26 24 22 21 20 20 18 17 16 14 13 12 12 12 11 9 7 6 4 3 2 2 1 0 0 1 2 3 4 4 5 4 2 2 3 3 4 4 4 5 5 4 4 3 3 4 4 4 5 6 8 9 7 6 6 7 8 8 9 10 11 12 12 10 10 10 11 13 14 16 16 17 18 18 17 16 16 15
20 21 23 25 26 27 27 26 24 23 22 21 19 17 16 15 15 14 13 13 13 11 10 8 6 5 4 3 2 1 1 1 1 2 3 3 4 4 4 3 3 3 4 4 4 5 5 5 4 4 4 4 5 5 6 6 7 8 8 7 7 6 6 6 7 8 9 11 12 11 10 10 10 11 13 14 16 17 18 19 19 16 13 14 17
18 20 23 25 26 27 26 25 24 23 22 21 19 17 16 16 15 15 14 14 13 12 11 9 7 6 6 5 3 3 3 3 3 2 1 1 2 2 2 3 3 3 3 3 4 5 4 4 4 4 4 4 5 6 6 6 6 7 7 7 7 6 7 7 8 8 10 11 12 11 10 11 11 11 13 14 15 17 18 19 17 16 15 16 19
22 24 26 27 26 25 24 24 24 24 23 22 20 17 16 16 16 16 15 14 14 13 10 8 8 8 8 7 5 5 5 4 4 3 2 1 1 0 1 2 3 2 2 3 3 4 4 4 4 4 4 4 5 6 6 6 6 7 7 8 8 8 8 9 9 9 10 11 12 12 12 13 13 13 13 14 16 17 18 19 17 17 18 20 20
28 29 29 27 26 24 23 22 22 22 22 21 19 18 17 17 17 16 14 14 14 13 11 9 9 10 9 8 7 7 5 4 3 3 2 2 2 1 2 3 3 3 2 3 3 3 3 3 3 4 4 5 5 6 6 6 6 7 8 9 9 9 9 10 10 10 11 11 12 13 14 14 13 12 13 14 16 16 17 18 18 17 17 19 21
31 29 28 27 26 25 23 22 21 20 21 21 20 19 18 17 16 15 14 14 13 13 12 10 11 11 10 9 8 8 5 3 3 3 2 3 3 3 4 4 4 4 4 4 4 3 3 2 3 4 4 5 5 5 5 6 6 7 8 9 9 9 10 10 10 10 10 11 12 13 14 13 13 12 13 15 17 17 18 19 18 17 16 17 19
31 31 30 28 26 24 23 22 21 19 20 22 22 20 19 17 15 14 14 13 13 14 13 12 13 12 10 9 8 7 5 4 4 4 4 5 6 5 5 5 6 6 5 5 4 3 3 2 2 3 3 3 4 4 5 5 6 7 8 9 10 10 10 10 10 9 9 10 10 11 13 13 14 14 15 17 18 20 20 20 19 18 17 17 17
32 32 31 28 26 25 23 22 21 20 21 23 22 20 18 16 14 14 14 14 14 14 14 14 14 12 9 8 8 6 5 4 5 5 6 7 8 9 8 7 7 6 5 4 4 3 2 2 2 3 3 3 4 5 5 5 5 7 8 10 11 11 11 11 10 10 10 10 10 10 11 12 13 14 15 16 17 18 19 19 19 20 18 17 17
28 29 30 29 27 25 23 22 20 20 22 22 20 18 16 14 13 13 13 14 14 14 15 15 14 11 9 8 7 6 6 5 6 7 8 8 9 10 9 8 6 5 5 4 3 3 4 4 4 4 4 5 6 6 7 7 7 9 10 12 13 13 12 11 10 10 10 10 10 11 12 13 13 14 15 16 17 18 19 20 20 20 19 17 18
25 28 29 29 28 25 23 22 21 21 22 21 19 16 15 14 13 13 14 13 13 14 14 14 12 10 9 8 7 7 7 7 9 9 9 8 8 9 8 7 5 4 4 4 4 4 5 6 6 6 6 6 7 8 8 9 10 11 12 13 13 12 11 11 11 12 13 12 12 13 15 16 17 17 18 18 19 20 20 21 21 20 20 18 16
25 26 26 27 27 25 23 22 21 22 22 21 18 16 15 15 14 14 14 13 13 14 12 10 8 8 9 8 8 8 9 10 10 9 9 9 8 8 8 6 4 3 3 3 4 5 6 6 7 7 8 8 8 9 9 9 10 11 11 11 11 11 11 13 14 16 16 15 16 16 17 19 20 20 21 22 21 21 22 23 24 24 23 22 18
23 24 24 25 25 23 21 21 21 22 22 20 18 17 17 16 15 14 13 12 12 12 9 7 6 9 10 9 10 10 10 11 10 9 9 9 8 9 8 6 4 2 3 3 4 5 5 6 6 7 7 8 9 9 10 10 10 10 8 8 11 12 13 16 16 17 18 18 18 18 18 20 20 21 22 23 23 23 23 24 25 26 27 26 24
22 23 22 24 24 22 20 20 21 22 22 20 19 18 18 17 15 13 12 12 11 9 7 7 9 11 12 11 12 12 12 11 10 9 9 10 9 9 8 6 4 3 3 3 4 4 5 5 5 6 6 7 9 10 11 11 11 9 5 8 12 14 15 16 17 17 19 20 20 19 19 20 20 21 22 22 23 23 24 24 24 25 27 27 27
21 22 22 23 23 22 22 22 21 21 21 20 19 18 17 16 15 13 12 11 10 9 10 11 13 14 14 13 13 13 12 12 11 10 10 10 9 8 7 5 4 3 3 3 4 5 5 5 5 5 6 7 9 10 11 11 10 7 5 8 10 14 16 16 17 19 21 22 21 20 20 20 20 20 21 22 23 24 25 25 24 24 25 26 27
21 23 23 23 23 23 22 22 21 21 21 20 19 18 17 17 15 14 13 13 13 14 14 15 15 15 14 13 12 12 12 12 11 10 10 10 8 7 6 5 4 3 3 4 6 6 6 6 5 5 5 6 8 11 11 9 6 3 6 9 9 10 15 17 18 19 21 23 22 21 21 21 20 20 22 22 23 24 26 26 24 25 25 26 27
21 24 24 23 24 23 22 22 21 20 20 20 20 20 20 19 18 17 16 17 17 17 17 16 15 14 13 12 12 11 11 10 10 8 8 7 6 5 4 4 4 4 5 6 7 7 7 6 5 5 7 9 12 16 14 7 5 5 4 7 8 7 9 15 20 21 21 23 23 22 23 22 22 21 22 22 23 25 27 27 25 25 27 27 27
22 24 24 24 24 24 23 22 21 21 20 20 21 21 21 20 20 20 20 20 19 18 18 16 14 13 12 11 10 9 8 8 7 6 4 3 3 3 3 4 4 5 6 6 6 6 7 6 5 7 9 13 17 20 18 11 8 6 2 3 4 3 2 9 19 21 20 22 24 24 24 25 25 23 23 23 24 25 27 27 26 25 28 29 29
24 24 24 24 24 24 23 22 21 20 20 21 22 21 20 21 22 23 23 21 20 19 17 15 13 12 10 9 8 7 5 5 5 4 3 3 3 4 5 5 5 5 5 6 7 8 10 9 8 9 10 14 19 22 22 19 14 6 2 3 3 1 2 5 15 19 18 20 25 27 25 26 26 25 24 25 25 27 27 27 27 27 28 30 30
22 21 21 22 23 24 23 22 22 21 21 22 21 20 21 22 23 23 23 22 20 18 16 14 12 11 9 8 6 5 4 4 4 4 4 5 6 7 7 7 7 7 6 8 11 12 13 13 12 11 11 15 20 23 23 23 21 12 4 1 2 3 2 5 13 13 13 18 24 28 27 26 27 26 25 26 26 28 28 27 28 27 29 32 32
20 19 20 21 22 23 23 23 23 22 22 23 21 21 24 25 25 24 22 22 20 18 16 14 11 10 9 7 6 4 3 4 5 5 6 7 8 8 9 9 9 9 9 12 15 16 16 16 15 14 15 16 19 23 24 24 26 22 13 6 3 2 1 6 10 7 9 15 20 27 27 26 27 27 26 26 26 27 28 28 28 27 28 33 33
20 20 20 21 22 22 22 23 24 23 23 22 22 25 28 28 27 26 24 22 19 16 15 14 11 10 8 7 6 4 4 5 6 7 7 8 9 10 10 10 12 12 13 15 17 18 18 17 16 15 16 16 16 21 23 22 24 26 24 18 12 7 2 5 4 3 6 9 15 24 27 26 25 26 27 25 25 27 27 28 28 26 28 33 33
19 20 20 21 22 22 23 23 23 23 22 22 24 27 29 28 28 27 25 23 20 16 14 13 11 10 9 8 7 6 5 7 9 9 9 10 11 12 12 13 14 15 15 17 18 19 19 18 17 17 18 16 16 21 21 19 20 22 22 20 19 17 14 10 4 2 4 5 11 21 26 26 24 25 27 24 24 25 26 28 28 26 28 32 33
20 21 20 20 22 22 23 22 22 22 22 23 26 29 29 28 27 26 24 22 21 18 16 13 12 11 10 9 8 8 8 9 11 11 11 11 12 13 14 15 16 17 17 18 20 19 19 18 18 19 20 20 20 22 22 19 18 17 16 17 18 19 20 19 13 6 2 4 8 14 23 28 24 24 27 23 22 22 24 28 28 26 29 33 33
22 22 21 21 22 22 22 21 21 22 22 24 28 28 28 28 27 25 23 20 20 19 17 15 13 11 11 11 10 10 11 12 12 12 12 13 14 15 15 16 17 18 18 19 20 19 19 19 20 21 22 23 22 21 22 21 19 17 16 16 17 18 19 22 22 16 7 4 4 6 18 26 22 24 27 23 21 20 21 28 28 26 29 33 34
22 23 22 20 21 21 21 20 20 22 23 26 29 28 28 27 26 25 23 22 21 21 19 16 15 13 13 13 12 13 13 14 15 14 15 15 16 16 16 17 18 18 19 19 19 19 20 21 22 22 23 24 23 21 22 21 21 20 19 19 19 19 17 18 21 19 12 6 4 5 13 18 14 19 26 24 21 18 18 28 28 26 30 33 33
21 22 21 20 20 20 20 21 21 23 25 27 29 28 27 27 26 25 24 24 24 22 21 19 16 15 15 14 14 14 15 16 17 17 17 17 17 17 17 18 18 19 19 19 20 20 21 21 22 23 23 23 22 22 23 22 22 22 23 23 22 21 17 15 16 16 12 7 5 5 11 16 11 13 23 23 21 17 17 27 28 24 30 34 33
Wind_Direction
177 168 161 161 159 157 156 156 155 151 149 148 146 140 135 131 130 130 127 122 117 116 113 111 109 110 110 109 108 107 107 106 107 105 104 104 104 104 99 93 89 88 85 77 70 65 62 65 66 68 71 78 94 101 96 94 99 101 101 102 104 102 104 104 101 98 92 91 90 92 96 95 88 79 74 82 97 106 105 102 102 98 92 89 85
170 166 161 160 159 156 156 155 153 150 148 148 145 142 135 132 131 130 125 120 119 118 116 114 112 113 113 112 110 109 109 109 108 106 106 106 107 105 99 93 91 89 82 74 67 62 61 65 63 63 67 77 94 103 100 97 100 98 101 102 101 101 104 105 104 103 98 98 96 98 100 99 94 76 67 76 88 93 97 102 105 102 99 95 85
161 160 159 157 157 155 155 154 151 149 148 147 146 143 136 133 132 128 124 121 121 120 119 117 115 115 113 113 112 111 110 110 108 107 107 107 108 104 101 97 94 90 82 71 61 60 60 62 61 60 63 81 96 104 105 103 103 98 97 100 99 99 100 99 96 93 93 101 107 109 108 103 95 79 73 77 84 88 91 97 99 97 92 89 90
158 156 155 155 155 155 154 152 150 148 147 146 146 144 137 134 130 126 125 124 123 121 121 119 118 115 112 113 111 112 112 111 109 107 108 108 109 106 107 104 97 87 78 67 55 56 58 56 56 59 64 85 101 109 111 106 104 102 102 106 105 99 98 95 86 77 71 79 99 114 115 108 99 90 89 82 85 88 83 87 92 93 87 79 83
157 153 152 153 155 156 152 151 149 146 146 146 147 144 137 133 129 127 127 126 124 122 122 120 118 115 113 113 112 114 113 112 110 109 109 109 110 109 110 104 93 80 74 65 56 56 55 53 52 60 69 89 107 116 119 110 103 105 107 110 109 106 104 95 81 68 55 61 82 96 103 98 92 89 93 87 85 89 78 84 89 86 86 80 76
154 150 150 153 154 153 150 151 147 145 145 146 148 144 137 132 129 128 128 126 124 123 122 120 118 116 114 113 113 115 114 113 111 110 109 107 108 108 107 97 83 74 71 65 60 56 53 51 51 63 76 95 112 120 124 120 113 111 110 110 111 114 116 111 95 65 46 58 79 87 95 94 95 96 99 98 101 103 81 87 97 95 93 87 85
152 148 151 154 151 150 150 149 146 144 144 146 149 143 135 131 130 130 129 125 122 122 120 120 119 118 115 113 114 114 116 115 112 110 107 105 102 101 97 88 78 72 72 71 69 65 60 56 56 71 85 103 117 123 127 127 125 122 123 122 120 120 120 122 129 74 56 69 75 87 94 94 100 106 110 112 117 116 92 89 93 97 100 91 88
149 149 152 151 148 150 148 147 147 144 143 146 147 141 135 132 132 132 129 124 122 120 118 119 119 119 116 115 115 114 116 115 116 113 108 105 103 104 101 97 91 87 89 87 78 69 67 66 73 86 97 113 122 126 128 129 129 128 126 123 119 114 100 82 317 261 200 193 121 100 94 89 91 99 110 115 117 111 107 109 96 88 91 92 92
147 149 149 147 146 147 146 147 146 143 144 146 146 140 137 135 134 132 128 124 122 120 118 118 117 118 117 116 117 116 115 114 117 114 113 113 115 121 120 115 101 95 96 94 71 58 63 71 90 106 115 124 127 129 130 131 130 127 118 110 100 83 51 12 265 233 195 175 136 115 97 88 83 99 113 94 110 107 115 127 103 98 79 87 100
147 148 146 143 143 146 147 147 144 144 144 145 145 140 139 137 134 132 128 124 122 121 119 118 117 116 115 117 118 118 117 115 116 113 115 116 118 122 123 117 101 98 95 93 67 56 64 74 103 122 129 132 131 132 132 133 129 122 112 101 83 59 50 63 208 191 169 156 129 118 102 86 71 78 84 48 75 77 97 103 91 101 89 90 105
146 147 144 139 141 146 146 145 144 146 145 145 144 141 141 137 134 131 128 126 125 124 122 121 119 118 118 118 118 120 120 119 121 121 121 119 118 118 123 117 103 101 93 93 70 61 67 77 113 133 137 139 137 138 137 136 128 116 105 86 67 52 53 65 176 134 147 150 131 122 108 83 53 44 45 18 0 17 85 122 114 124 127 122 123
147 146 140 138 144 145 143 145 147 148 149 147 144 143 143 138 135 131 129 128 128 129 128 127 123 121 120 118 119 119 118 120 122 123 124 129 132 128 131 128 112 107 99 97 75 67 70 77 116 142 146 147 145 145 145 139 128 114 97 73 59 54 53 23 233 129 145 144 132 121 105 75 36 30 32 359 338 350 71 158 166 154 158 166 142
146 144 139 142 146 144 143 146 149 151 150 147 146 145 143 139 135 135 135 134 134 134 132 129 125 121 116 114 115 110 104 100 94 91 87 91 78 60 111 125 118 119 113 103 83 75 74 74 111 148 156 155 155 154 154 144 132 117 92 65 59 56 50 31 332 149 154 146 131 106 88 49 20 21 15 356 343 341 337 206 202 180 193 200 114
145 143 142 145 143 143 145 148 151 151 149 148 149 146 144 141 139 141 140 139 139 136 133 128 120 115 110 107 104 94 85 77 70 66 58 52 39 27 30 107 129 128 122 112 93 76 75 72 98 145 164 165 165 165 162 152 143 125 93 65 60 58 49 37 13 324 200 178 154 66 42 358 8 13 2 353 345 342 336 302 271 227 237 273 111
147 145 142 141 140 144 147 149 152 150 151 152 150 148 146 144 144 146 142 141 139 134 130 122 112 107 106 103 97 91 85 77 71 64 59 52 42 37 35 80 143 141 133 121 105 81 73 69 82 129 164 175 175 177 172 162 154 133 98 71 58 55 50 41 28 0 251 235 260 288 305 324 352 0 353 350 342 339 326 315 319 307 309 259 257
148 145 141 140 141 144 146 149 151 150 152 153 151 149 149 148 146 147 142 138 135 132 125 116 110 107 107 105 101 94 86 78 70 63 60 54 45 41 41 69 140 148 144 132 118 92 74 68 72 102 152 180 187 189 185 176 167 148 107 79 56 48 49 40 28 14 296 247 256 273 291 309 331 339 337 343 338 335 324 318 322 321 338 297 292
145 143 140 140 142 143 146 148 150 150 152 152 151 150 151 149 147 145 139 135 133 130 123 117 114 112 112 107 100 89 78 73 71 63 59 56 49 45 48 65 121 149 152 146 136 113 83 70 67 79 117 168 193 203 202 197 193 175 120 80 54 40 42 37 25 18 359 267 259 269 285 298 313 314 309 328 331 334 327 321 320 318 331 317 314
142 141 140 140 142 143 146 147 150 151 152 152 151 152 151 149 147 143 137 135 133 130 126 123 117 114 112 106 98 83 76 76 77 72 68 65 57 51 53 61 87 135 153 157 157 144 113 79 68 65 80 120 181 207 215 213 216 213 149 77 44 25 29 30 21 17 11 325 277 277 284 290 303 306 295 312 324 328 326 322 318 317 326 326 325
140 141 141 144 145 145 147 150 153 153 153 153 151 152 152 150 146 143 140 137 136 134 131 123 113 111 108 103 98 87 82 79 78 79 79 74 67 61 58 58 66 90 131 164 174 171 155 113 80 67 67 72 99 196 221 223 232 239 254 29 17 4 10 17 13 10 8 352 314 297 291 285 291 298 292 299 313 321 322 321 319 319 325 325 326
142 145 147 150 150 150 152 154 154 154 155 153 152 153 153 151 146 144 142 141 141 139 132 123 118 115 107 103 99 90 85 79 75 79 85 80 76 72 64 59 58 63 68 101 183 197 194 178 116 82 76 71 69 83 218 228 240 249 272 320 329 333 343 358 2 357 358 353 328 308 296 285 284 288 290 291 302 313 314 319 319 319 321 319 321
148 151 154 156 156 157 156 156 156 155 155 154 155 154 154 153 149 148 148 149 146 141 135 129 128 124 116 111 105 92 83 79 73 75 84 83 81 77 69 59 52 52 51 53 59 219 226 224 203 141 94 81 86 100 140 206 229 242 274 319 325 323 328 337 344 343 344 343 331 316 298 286 283 283 287 289 294 303 306 311 313 314 315 314 317
153 154 157 160 161 161 159 158 157 156 157 158 158 155 157 157 153 154 155 154 148 145 141 135 136 132 126 118 110 99 88 83 73 74 78 77 75 72 69 62 50 47 42 40 40 33 297 246 238 233 231 236 73 140 162 160 180 236 278 311 333 339 333 326 326 333 337 336 333 326 307 290 283 280 285 290 290 295 301 305 306 308 309 309 311
156 156 159 164 164 164 164 161 158 159 161 160 159 159 162 162 160 160 158 155 150 148 143 139 139 134 131 121 121 122 109 100 84 73 64 57 53 53 59 53 47 43 34 30 29 26 20 329 263 254 256 268 318 344 203 182 274 305 302 303 310 315 318 318 320 329 335 336 335 331 317 298 285 280 283 288 288 290 296 300 300 301 302 304 303
160 159 161 167 169 169 167 165 163 164 164 162 162 164 166 168 167 163 158 156 154 151 146 144 142 139 141 144 172 156 125 112 105 85 14 15 19 27 32 29 28 24 25 25 25 23 17 16 357 309 293 299 317 332 321 307 309 311 307 301 297 298 302 309 318 327 333 334 335 331 319 304 290 283 283 286 289 290 293 296 298 297 297 299 296
162 162 165 171 174 174 172 170 169 169 168 166 167 169 170 174 171 164 161 159 157 155 152 150 148 151 150 144 161 150 127 97 90 56 323 334 343 355 0 8 13 7 14 13 21 28 19 18 21 15 356 345 341 341 337 330 334 335 327 310 295 296 300 303 311 320 326 327 328 327 318 308 296 286 284 286 290 291 292 294 294 294 294 295 294
165 167 172 175 177 177 176 175 174 172 172 171 170 170 171 174 172 166 165 162 161 161 158 160 166 171 169 168 167 149 87 45 34 356 330 315 321 338 343 349 5 5 11 11 15 21 14 16 27 35 27 18 19 14 7 2 360 358 357 349 325 313 313 310 311 316 323 328 329 327 320 311 303 293 290 291 293 294 293 293 293 293 293 296 297
171 173 177 178 180 180 181 180 177 175 174 174 171 170 170 172 171 168 166 164 167 167 166 173 186 193 195 197 200 225 258 261 277 322 319 304 311 332 340 338 354 359 0 8 9 6 3 6 19 28 22 19 22 17 14 8 1 359 360 3 359 352 349 344 337 334 337 338 337 335 329 321 312 302 299 299 298 297 296 295 291 288 287 289 288
177 178 181 182 181 182 184 183 182 178 175 175 172 169 169 169 171 172 168 168 174 175 174 182 194 201 203 208 218 237 237 231 236 243 274 299 295 313 338 334 350 354 352 9 11 4 356 355 6 10 7 8 12 12 13 12 11 10 5 3 4 2 357 354 351 346 343 340 339 339 337 333 326 316 310 309 307 304 300 295 288 282 285 289 284
183 182 183 183 182 183 186 186 186 181 177 177 173 169 170 172 176 177 173 176 181 181 183 192 201 203 202 206 212 224 221 213 218 207 179 116 191 264 11 9 25 21 8 22 22 14 358 353 0 3 5 3 1 3 7 12 15 16 16 11 5 360 353 348 346 343 340 336 334 335 335 333 330 325 321 319 318 316 309 298 290 291 293 295 295
184 183 182 181 181 183 187 189 188 182 178 179 175 169 172 177 181 182 180 184 188 189 194 200 205 203 204 212 216 217 208 196 206 199 178 119 111 70 48 61 55 44 44 39 36 35 26 13 9 9 8 2 357 356 356 1 7 10 11 4 357 352 345 341 339 336 335 334 333 333 333 331 328 325 325 326 325 324 320 309 304 305 302 299 300
182 181 180 179 180 185 188 190 189 183 179 181 179 173 176 182 185 188 187 192 197 198 202 206 206 206 211 219 218 216 206 179 183 193 164 106 92 83 74 78 71 70 80 78 67 66 61 41 22 16 9 4 357 346 343 345 349 352 353 350 346 342 337 336 336 333 332 333 337 338 337 335 333 331 326 325 327 327 327 323 317 312 308 306 303
179 180 179 176 179 184 187 191 191 186 183 182 180 178 182 187 190 195 198 206 212 211 213 211 209 211 217 217 213 214 207 166 158 161 127 97 92 97 94 89 86 87 93 93 86 81 70 46 28 19 4 353 343 343 350 344 345 348 347 346 344 341 340 339 336 334 334 334 337 338 339 339 338 336 330 330 334 334 334 333 333 332 327 321 313
178 179 179 177 177 180 183 188 188 189 187 182 180 181 187 192 198 207 211 218 223 221 218 211 211 218 218 210 204 202 187 156 150 145 116 96 97 103 103 101 97 94 91 87 79 62 46 32 17 359 345 337 336 350 354 349 355 355 354 353 349 347 345 345 345 345 345 345 345 344 345 347 350 348 347 350 351 351 352 354 358 1 358 345 330
177 178 179 178 176 179 182 184 186 190 189 184 183 185 193 201 209 217 217 220 221 215 210 208 214 220 211 195 189 182 165 150 140 134 119 106 109 110 108 107 97 88 84 70 52 32 16 11 7 354 348 350 351 351 347 349 356 356 360 358 353 353 355 2 8 11 14 13 10 9 11 12 13 13 12 12 11 11 14 15 17 18 16 7 352
178 178 181 178 179 183 184 185 187 191 189 188 188 191 199 204 207 210 207 207 207 204 206 212 216 209 191 178 173 169 158 146 140 139 132 121 116 112 108 106 95 82 72 52 34 19 10 6 2 356 349 349 351 347 345 346 348 353 2 1 1 8 20 35 42 46 46 43 38 34 34 34 33 32 29 27 26 27 28 27 27 27 28 25 13
179 178 180 179 182 186 189 191 192 192 191 190 190 192 195 196 196 195 194 196 199 203 207 210 203 184 172 164 158 158 153 147 145 146 139 127 118 110 106 105 101 82 57 42 30 23 19 9 360 353 347 345 342 339 342 343 344 355 6 14 27 39 51 60 62 61 58 54 49 44 42 41 40 39 37 36 36 36 37 37 37 38 39 39 36
179 177 178 179 181 185 191 195 192 191 190 188 185 185 187 190 192 190 191 197 200 202 200 191 172 163 164 158 152 150 148 146 142 139 130 122 116 111 109 106 101 81 51 29 25 28 21 6 355 350 348 345 339 335 338 341 344 355 15 47 59 62 66 67 65 61 55 52 48 43 39 38 37 37 37 38 40 41 41 40 42 43 43 43 41
178 178 179 179 178 179 182 182 180 182 182 180 177 177 182 187 189 189 191 191 190 189 177 163 148 148 152 150 147 142 140 139 135 134 127 120 118 116 115 109 98 75 46 23 21 23 17 7 355 349 350 351 348 344 341 340 343 352 31 80 73 68 70 67 62 55 48 44 41 37 35 32 32 34 37 41 43 43 40 36 36 39 40 39 38
175 177 179 178 176 173 174 174 174 176 176 175 173 173 177 181 181 180 180 177 170 159 149 145 141 142 144 142 141 137 135 134 132 134 131 127 124 117 113 99 78 57 38 26 26 20 18 15 1 356 358 1 1 354 346 341 342 353 64 97 87 73 69 64 55 48 42 38 35 32 31 30 31 34 38 43 45 44 41 35 29 29 32 33 32
174 176 177 176 174 171 172 173 175 176 176 174 173 173 170 170 170 167 161 154 148 142 140 142 139 139 141 140 139 135 133 132 130 131 129 126 118 107 99 83 67 50 36 32 31 25 21 15 8 8 5 4 8 6 358 350 352 21 95 102 105 86 67 58 49 43 38 34 32 30 30 31 32 35 38 41 43 42 41 39 31 24 24 25 26
173 176 176 175 175 175 175 174 176 179 180 178 176 174 169 163 159 155 146 140 140 141 139 139 138 137 138 138 136 133 134 131 128 127 121 116 106 97 83 73 61 42 41 40 34 29 27 25 25 28 24 22 26 21 15 13 23 35 86 96 113 115 70 52 43 39 36 34 32 31 32 33 33 35 37 39 41 39 37 38 35 24 21 22 22
170 174 176 176 177 177 178 178 177 180 183 183 178 174 170 165 157 150 143 138 139 141 139 137 138 137 135 133 130 131 135 132 131 133 129 121 111 109 95 81 64 45 47 47 39 35 39 45 45 48 47 44 43 34 29 32 28 27 57 51 80 132 74 47 38 34 34 32 32 32 33 34 34 34 35 36 38 37 33 33 34 26 20 21 22
172 174 176 176 176 177 179 179 178 179 180 178 175 169 164 162 155 148 145 141 138 140 140 139 141 141 134 128 125 125 131 130 126 131 134 131 128 122 111 98 80 61 54 57 57 55 54 56 55 59 62 58 54 45 41 41 33 37 85 35 30 342 304 12 18 22 30 30 30 32 32 34 34 33 34 35 33 32 30 27 30 28 20 20 22
175 176 176 176 177 178 181 180 178 177 175 172 170 166 157 153 149 147 147 143 138 140 143 142 143 143 134 126 121 113 115 117 112 113 118 120 117 113 106 95 84 73 67 71 69 63 60 57 58 63 66 65 60 52 49 48 43 45 60 45 34 30 27 339 340 356 23 25 28 29 29 31 31 31 32 33 30 27 27 24 25 27 20 18 21
179 179 177 178 178 180 183 181 178 175 173 170 167 162 153 147 144 142 141 138 137 143 147 143 140 138 131 125 118 109 117 119 111 111 115 116 111 104 99 92 85 79 77 77 72 68 65 63 63 67 69 71 71 64 58 55 54 55 59 66 44 29 308 318 329 340 6 14 22 24 26 28 27 27 27 29 29 25 23 21 22 24 17 17 21
182 181 178 180 180 180 181 178 176 174 171 168 165 160 154 151 149 145 142 139 140 146 149 144 139 134 126 121 116 115 128 126 119 117 118 115 109 102 98 93 88 84 82 79 75 72 71 71 71 72 73 74 78 74 66 63 63 61 63 69 68 63 21 331 341 331 337 353 10 15 21 25 24 24 24 26 27 23 21 17 19 22 16 15 19
181 180 180 181 179 178 178 176 174 174 171 166 164 160 157 157 156 154 153 154 151 148 149 145 140 134 126 122 118 117 123 125 122 119 117 113 108 104 99 95 91 89 86 80 78 77 77 78 76 76 78 77 80 78 70 67 66 62 65 69 68 65 55 42 41 327 327 327 350 5 14 20 23 21 20 24 25 21 17 13 16 19 14 13 15
179 179 181 180 177 176 176 176 174 173 170 166 164 162 161 160 159 159 160 163 159 150 148 145 139 137 130 125 122 121 122 123 122 119 117 113 109 106 100 97 95 91 88 83 82 84 84 83 81 81 82 80 80 80 74 69 66 62 62 65 63 60 54 51 48 40 22 297 328 356 2 9 21 21 16 21 25 22 13 10 14 16 11 10 12
176 178 179 177 176 175 174 174 171 169 168 166 165 164 165 164 163 163 161 161 158 150 148 144 141 140 132 127 126 126 124 122 122 122 120 116 112 109 102 97 96 93 91 88 88 89 88 87 85 85 84 82 81 80 78 73 69 66 60 58 53 48 46 43 40 42 45 357 338 343 348 357 10 15 14 18 24 23 11 8 13 13 8 8 8
172 174 175 174 174 173 172 170 168 168 167 167 166 164 167 169 168 168 163 157 153 149 148 144 143 141 133 131 129 127 126 122 123 122 121 118 114 110 103 98 97 97 96 94 93 91 90 89 87 85 84 83 83 82 82 80 76 72 65 60 53 45 41 35 32 34 36 24 353 325 339 347 345 354 5 12 19 21 10 8 12 11 5 5 6
169 171 173 174 173 172 170 166 166 168 167 167 168 167 170 173 173 172 166 160 156 153 151 146 145 143 137 135 132 130 127 124 123 121 119 118 115 109 104 102 101 101 100 97 96 95 93 92 89 87 85 85 86 86 86 84 80 76 70 69 66 60 57 49 38 33 33 25 351 325 338 341 320 330 354 5 13 19 11 6 11 10 3 3 4